Weather History for KIDA - September, 2013

Change the Weather History Date:

Thursday, September 19, 2013

  Actual Average Record
Temperature  
Mean Temperature 49 °F 56 °F  
Max Temperature 64 °F 73 °F 90 °F (1956)
Min Temperature 33 °F 39 °F 22 °F (1965)
Degree Days  
Heating Degree Days 16 9  
Month to date heating degree days 33 113  
Since 1 July heating degree days 33 178  
Cooling Degree Days 0 0  
Month to date cooling degree days 50 10  
Year to date cooling degree days 510 262  
Moisture  
Dew Point 35 °F    
Average Humidity 60    
Maximum Humidity 92    
Minimum Humidity 28    
Precipitation  
Precipitation 0.00 in 0.02 in 0.48 in (1948)
Month to date precipitation 2.05 0.51  
Year to date precipitation 4.75 7.49  
Sea Level Pressure  
Sea Level Pressure 30.18 in    
Wind  
Wind Speed 2 mph (North)    
Max Wind Speed 8 mph    
Max Gust Speed 13 mph    
Visibility 7 miles    
Events Fog    
T = Trace of Precipitation, MM = Missing Value Source: NWS Daily Summary

Daily Weather History Graph

Daily Weather History Graph

Search for Another Location

Airport or City:

Trip Planner

Search our weather history database for the weather conditions in past years. The results will help you decide how hot, cold, wet, or windy it might be!

Date:

Astronomy

Sep. 19, 2013 Rise Set
Actual Time 7:12 AM MDT 7:30 PM MDT
Civil Twilight 6:43 AM MDT 7:59 PM MDT
Nautical Twilight 6:10 AM MDT 8:32 PM MDT
Astronomical Twilight 5:35 AM MDT 9:07 PM MDT
Moon 7:28 PM MDT (9/19) 7:27 AM MDT (9/19)
Length of Visible Light 13h 15m
Length of Day
12h 18m
Full, 100% of the Moon is Illuminated
Sep 19
Full
Sep 26
Last Quarter
Oct 4
New
Oct 11
First Quarter
Oct 18
Full

Hourly Weather History & Observations

Time (MDT) Temp. Windchill Dew Point Humidity Pressure Visibility Wind Dir Wind Speed Gust Speed Precip Events Conditions
12:53 AM 44.1 °F 42.5 °F 39.9 °F 85% 30.10 in 10.0 mi Variable 3.5 mph - N/A   Clear
1:53 AM 41.0 °F - 37.9 °F 89% 30.13 in 10.0 mi Calm Calm - N/A   Partly Cloudy
2:53 AM 37.9 °F - 35.1 °F 89% 30.15 in 8.0 mi Calm Calm - N/A   Partly Cloudy
3:37 AM 39.2 °F - 35.6 °F 87% 30.17 in 1.8 mi Calm Calm - N/A   Partly Cloudy
3:42 AM 37.4 °F - 35.6 °F 93% 30.17 in 0.8 mi Calm Calm - N/A   Mist
3:50 AM 35.6 °F - 33.8 °F 93% 30.17 in 1.0 mi Calm Calm - N/A   Clear
3:53 AM 37.0 °F - 34.0 °F 89% 30.14 in 1.5 mi Calm Calm - N/A   Clear
3:55 AM 37.4 °F - 35.6 °F 93% 30.17 in 3.0 mi Calm Calm - N/A   Clear
4:04 AM 37.4 °F - 35.6 °F 93% 30.17 in 1.5 mi Calm Calm - N/A   Partly Cloudy
4:10 AM 37.4 °F - 35.6 °F 93% 30.17 in 0.8 mi Calm Calm - N/A   Mist
4:31 AM 35.6 °F - 33.8 °F 93% 30.17 in 1.2 mi Calm Calm - N/A   Partly Cloudy
4:40 AM 37.4 °F - 33.8 °F 87% 30.17 in 0.8 mi Calm Calm - N/A   Mist
4:45 AM 37.4 °F - 33.8 °F 87% 30.18 in 1.0 mi Calm Calm - N/A   Mist
4:53 AM 36.0 °F 33.3 °F 34.0 °F 93% 30.17 in 0.8 mi North 3.5 mph - N/A   Mist
4:59 AM 37.4 °F 33.8 °F 33.8 °F 87% 30.19 in 1.2 mi North 4.6 mph - N/A   Scattered Clouds
5:02 AM 37.4 °F 32.8 °F 33.8 °F 87% 30.19 in 4.0 mi North 5.8 mph - N/A   Partly Cloudy
5:53 AM 36.0 °F - 33.1 °F 89% 30.18 in 10.0 mi Calm Calm - N/A   Scattered Clouds
6:00 AM 37.4 °F 34.9 °F 33.8 °F 87% 30.19 in 10.0 mi North 3.5 mph - N/A   Mostly Cloudy
6:06 AM 35.6 °F - 33.8 °F 93% 30.19 in 1.2 mi Calm Calm - N/A   Mostly Cloudy
6:10 AM 35.6 °F - 33.8 °F 93% 30.19 in 0.5 mi Calm Calm - N/A Fog Fog
6:19 AM 35.6 °F - 33.8 °F 93% 30.20 in 0.2 mi Calm Calm - N/A Fog Fog
6:50 AM 35.6 °F - 33.8 °F 93% 30.20 in 10.0 mi Calm Calm - N/A Fog Shallow Fog
6:53 AM 35.1 °F - 33.1 °F 92% 30.19 in 10.0 mi Calm Calm - N/A Fog Shallow Fog
7:53 AM 35.1 °F - 33.1 °F 92% 30.23 in 10.0 mi Calm Calm - N/A   Clear
8:53 AM 41.0 °F 39.0 °F 37.9 °F 89% 30.24 in 10.0 mi North 3.5 mph - N/A   Clear
9:53 AM 46.0 °F 43.9 °F 37.9 °F 73% 30.23 in 10.0 mi NNE 4.6 mph - N/A   Clear
10:53 AM 50.0 °F - 37.0 °F 61% 30.24 in 10.0 mi NW 3.5 mph - N/A   Clear
11:53 AM 53.1 °F - 35.1 °F 50% 30.22 in 10.0 mi Calm Calm - N/A   Clear
12:53 PM 57.9 °F - 36.0 °F 44% 30.20 in 10.0 mi Variable 3.5 mph - N/A   Clear
1:53 PM 59.0 °F - 36.0 °F 42% 30.19 in 10.0 mi NW 4.6 mph - N/A   Clear
2:53 PM 62.1 °F - 33.1 °F 34% 30.17 in 10.0 mi Calm Calm - N/A   Clear
3:53 PM 62.1 °F - 32.0 °F 32% 30.17 in 10.0 mi SSW 3.5 mph - N/A   Clear
3:56 PM 60.8 °F - 30.2 °F 31% 30.19 in 10.0 mi Calm Calm - N/A   Clear
4:53 PM 64.0 °F - 30.9 °F 29% 30.15 in 10.0 mi Calm Calm - N/A   Clear
5:53 PM 62.1 °F - 30.9 °F 31% 30.14 in 10.0 mi Calm Calm - N/A   Clear
6:53 PM 62.1 °F - 33.1 °F 34% 30.14 in 10.0 mi NE 5.8 mph - N/A   Clear
7:53 PM 57.0 °F - 36.0 °F 45% 30.15 in 10.0 mi ENE 3.5 mph - N/A   Clear
8:53 PM 48.9 °F - 37.0 °F 64% 30.17 in 10.0 mi Calm Calm - N/A   Clear
9:53 PM 44.1 °F 41.5 °F 37.0 °F 76% 30.17 in 10.0 mi North 4.6 mph - N/A   Clear
10:53 PM 44.1 °F 42.5 °F 37.0 °F 76% 30.15 in 10.0 mi NE 3.5 mph - N/A   Clear
11:53 PM 44.1 °F 41.5 °F 36.0 °F 73% 30.14 in 10.0 mi NNE 4.6 mph - N/A   Clear